Nantes, France

12:31 AM CET on January 20, 2018 (GMT +0100)
Nantes / Atlantique

Weather History for LFRS - March, 2013

Change the Weather History Date:

Monday, March 25, 2013

  Actual Average Record
Temperature  
Mean Temperature 46 °F -  
Max Temperature 49 °F 57 °F 71 °F (2003)
Min Temperature 42 °F 42 °F 30 °F (2015)
Degree Days  
Heating Degree Days 20    
Moisture  
Dew Point 40 °F    
Average Humidity 81    
Maximum Humidity 100    
Minimum Humidity 60    
Precipitation  
Precipitation 0.00 in 0.07 in - ()
Sea Level Pressure  
Sea Level Pressure 29.72 in    
Wind  
Wind Speed 6 mph ()    
Max Wind Speed 9 mph    
Max Gust Speed -    
Visibility 3.3 miles    
Events      
Averages and records for this station are not official NWS values.
T = Trace of Precipitation, MM = Missing Value Source: Averaged Metar Reports

Daily Weather History Graph

Daily Weather History Graph

Search for Another Location

Airport or City:

Trip Planner

Search our weather history database for the weather conditions in past years. The results will help you decide how hot, cold, wet, or windy it might be!

Date:

Astronomy

Mar. 25, 2013 Rise Set
Actual Time 6:59 AM CET 7:26 PM CET
Civil Twilight 6:28 AM CET 7:56 PM CET
Nautical Twilight 5:52 AM CET 8:33 PM CET
Astronomical Twilight 5:15 AM CET 9:10 PM CET
Moon 5:37 PM CET (3/25) 5:41 AM CET (3/25)
Length of Visible Light 13h 28m
Length of Day
12h 26m
Waxing Gibbous, 95% of the Moon is Illuminated
Mar 25
Waxing Gibbous
Mar 27
Full
Apr 3
Last Quarter
Apr 10
New
Apr 18
First Quarter

Hourly Weather History & Observations

Time (CET) Temp. Windchill Dew Point Humidity Pressure Visibility Wind Dir Wind Speed Gust Speed Precip Events Conditions
12:00 AM 44.6 °F 40.7 °F 41.0 °F 87% 29.71 in 5.0 mi NE 6.9 mph - N/A   Overcast
12:30 AM 44.6 °F 40.7 °F 41.0 °F 87% 29.71 in 5.0 mi NE 6.9 mph - N/A   Overcast
1:00 AM 45 °F - 42 °F 83% 29.74 in 5 mi NE 5.8 mph - -   Overcast
1:00 AM 44.6 °F 40.7 °F 41.0 °F 87% 29.74 in 5.0 mi NE 6.9 mph - N/A   Overcast
1:30 AM 44.6 °F 40.7 °F 41.0 °F 87% 29.71 in 5.0 mi NE 6.9 mph - N/A   Overcast
2:00 AM 44.6 °F 41.4 °F 42.8 °F 93% 29.74 in 3.7 mi NE 5.8 mph - N/A   Overcast
2:30 AM 44.6 °F 42.2 °F 42.8 °F 93% 29.74 in - NNE 4.6 mph - N/A   Overcast
3:00 AM 42.8 °F 40.1 °F 42.8 °F 100% 29.74 in - NNE 4.6 mph - N/A   Overcast
3:30 AM 42.8 °F 39.3 °F 42.8 °F 100% 29.74 in 1.2 mi NNE 5.8 mph - N/A   Overcast
4:00 AM 42.8 °F 39.3 °F 42.8 °F 100% 29.74 in 1.1 mi NNE 5.8 mph - N/A   Overcast
4:30 AM 42.8 °F 40.1 °F 42.8 °F 100% 29.74 in 1.4 mi NNE 4.6 mph - N/A   Overcast
5:00 AM 42.8 °F 40.1 °F 42.8 °F 100% 29.74 in 1.6 mi North 4.6 mph - N/A   Overcast
5:30 AM 42.8 °F 40.1 °F 42.8 °F 100% 29.74 in 1.6 mi NNE 4.6 mph - N/A   Overcast
6:00 AM 42.8 °F 40.1 °F 42.8 °F 100% 29.74 in 1.6 mi NNE 4.6 mph - N/A   Overcast
6:30 AM 42.8 °F 40.1 °F 42.8 °F 100% 29.74 in 1.6 mi NE 4.6 mph - N/A   Overcast
7:00 AM 42 °F - 42 °F 100% 29.76 in 1 mi NNE 4.6 mph - -   Mist
7:00 AM 42.8 °F 40.1 °F 42.8 °F 100% 29.74 in 1.2 mi NNE 4.6 mph - N/A   Overcast
7:30 AM 42.8 °F 39.3 °F 42.8 °F 100% 29.74 in 1.6 mi NE 5.8 mph - N/A   Overcast
8:00 AM 42.8 °F 39.3 °F 42.8 °F 100% 29.74 in 1.2 mi NE 5.8 mph - N/A   Overcast
8:30 AM 42.8 °F 39.3 °F 41.0 °F 93% 29.77 in 1.6 mi NE 5.8 mph - N/A   Overcast
9:00 AM 42.8 °F 40.1 °F 39.2 °F 87% 29.74 in 1.9 mi NE 4.6 mph - N/A   Overcast
9:30 AM 42.8 °F 39.3 °F 39.2 °F 87% 29.74 in 1.9 mi NE 5.8 mph - N/A   Overcast
10:00 AM 42.8 °F 38.6 °F 39.2 °F 87% 29.74 in 2.2 mi NE 6.9 mph - N/A   Overcast
10:30 AM 42.8 °F 38.6 °F 39.2 °F 87% 29.74 in 2.2 mi NE 6.9 mph - N/A   Overcast
11:00 AM 44.6 °F 40.7 °F 39.2 °F 81% 29.74 in 2.8 mi ENE 6.9 mph - N/A   Mostly Cloudy
11:30 AM 44.6 °F 40.2 °F 39.2 °F 81% 29.74 in 3.1 mi ENE 8.1 mph - N/A   Mostly Cloudy
12:00 PM 46.4 °F 42.4 °F 39.2 °F 76% 29.74 in 3.1 mi NE 8.1 mph - N/A   Mostly Cloudy
12:30 PM 46.4 °F 42.4 °F 39.2 °F 76% 29.71 in 3.1 mi NE 8.1 mph - N/A   Mostly Cloudy
1:00 PM 47 °F - 38 °F 63% 29.73 in 4 mi ENE 8.1 mph - -   Mostly Cloudy
1:00 PM 46.4 °F 42.4 °F 39.2 °F 76% 29.71 in 3.7 mi ENE 8.1 mph - N/A   Mostly Cloudy
1:30 PM 48.2 °F - 39.2 °F 71% 29.71 in 3.7 mi ENE 9.2 mph - N/A   Mostly Cloudy
2:00 PM 48.2 °F - 39.2 °F 71% 29.71 in 3.7 mi ENE 6.9 mph - N/A   Mostly Cloudy
2:30 PM 48.2 °F - 39.2 °F 71% 29.71 in 3.7 mi ENE 4.6 mph - N/A   Mostly Cloudy
3:00 PM 48.2 °F - 39.2 °F 71% 29.71 in 3.7 mi NNE 5.8 mph - N/A   Overcast
3:30 PM 48.2 °F - 39.2 °F 71% 29.68 in 3.7 mi ENE 5.8 mph - N/A   Mostly Cloudy
4:00 PM 48.2 °F - 39.2 °F 71% 29.68 in 3.7 mi ENE 6.9 mph - N/A   Overcast
4:30 PM 48.2 °F - 39.2 °F 71% 29.68 in 3.7 mi NE 5.8 mph - N/A   Mostly Cloudy
5:00 PM 48.2 °F - 39.2 °F 71% 29.68 in 3.7 mi NE 4.6 mph - N/A   Mostly Cloudy
5:30 PM 48.2 °F - 39.2 °F 71% 29.68 in 3.7 mi NE 4.6 mph - N/A   Mostly Cloudy
6:30 PM 48.2 °F - 39.2 °F 71% 29.68 in 4.3 mi NE 4.6 mph - N/A   Mostly Cloudy
7:00 PM 48 °F - 38 °F 60% 29.70 in 4 mi NE 6.9 mph - -   Overcast
7:00 PM 48.2 °F - 39.2 °F 71% 29.68 in 4.3 mi NE 6.9 mph - N/A   Mostly Cloudy
7:30 PM 48.2 °F - 39.2 °F 71% 29.68 in 4.3 mi NE 6.9 mph - N/A   Mostly Cloudy
8:00 PM 48.2 °F - 37.4 °F 66% 29.68 in 4.3 mi NE 8.1 mph - N/A   Mostly Cloudy
8:30 PM 48.2 °F - 37.4 °F 66% 29.68 in 5.0 mi NE 8.1 mph - N/A   Mostly Cloudy
9:00 PM 48.2 °F - 37.4 °F 66% 29.68 in 5.0 mi NE 5.8 mph - N/A   Mostly Cloudy
9:30 PM 48.2 °F - 37.4 °F 66% 29.68 in 5.0 mi NE 5.8 mph - N/A   Mostly Cloudy
10:00 PM 48.2 °F - 37.4 °F 66% 29.68 in 5.0 mi NE 5.8 mph - N/A   Mostly Cloudy
10:30 PM 48.2 °F - 37.4 °F 66% 29.68 in 5.0 mi NE 4.6 mph - N/A   Mostly Cloudy
11:00 PM 48.2 °F - 37.4 °F 66% 29.71 in 5.0 mi NE 5.8 mph - N/A   Mostly Cloudy
11:30 PM 46.4 °F 41.9 °F 37.4 °F 71% 29.71 in 5.0 mi NE 9.2 mph - N/A   Mostly Cloudy